TimeCST,TemperatureF,Dew PointF,Humidity,Sea Level PressureIn,VisibilityMPH,Wind Direction,Wind SpeedMPH,Gust SpeedMPH,PrecipitationIn,Events,Conditions,WindDirDegrees,DateUTC
12:15 AM,23.0,17.6,80,29.77,10.0,Calm,Calm,-,N/A,,Overcast,0,2012-12-17 06:15:00
12:35 AM,23.0,17.6,80,29.77,10.0,NNE,3.5,-,N/A,,Overcast,20,2012-12-17 06:35:00
12:55 AM,23.0,17.6,80,29.76,10.0,NNE,4.6,-,N/A,,Overcast,30,2012-12-17 06:55:00
1:15 AM,23.0,17.6,80,29.76,10.0,NNE,3.5,-,N/A,,Overcast,20,2012-12-17 07:15:00
1:35 AM,23.0,19.4,86,29.75,7.0,NE,3.5,-,N/A,,Overcast,40,2012-12-17 07:35:00
1:55 AM,23.0,19.4,86,29.75,7.0,ENE,4.6,-,N/A,,Overcast,70,2012-12-17 07:55:00
2:15 AM,23.0,19.4,86,29.75,7.0,Calm,Calm,-,N/A,,Overcast,0,2012-12-17 08:15:00
2:35 AM,23.0,19.4,86,29.73,7.0,East,5.8,-,N/A,,Overcast,80,2012-12-17 08:35:00
2:55 AM,23.0,19.4,86,29.73,5.0,East,9.2,-,N/A,,Overcast,80,2012-12-17 08:55:00
3:15 AM,24.8,19.4,80,29.72,4.0,East,8.1,-,N/A,,Overcast,80,2012-12-17 09:15:00
3:35 AM,24.8,19.4,80,29.73,5.0,East,4.6,-,N/A,,Overcast,100,2012-12-17 09:35:00
3:55 AM,24.8,19.4,80,29.72,5.0,East,3.5,-,N/A,,Overcast,100,2012-12-17 09:55:00
4:15 AM,24.8,19.4,80,29.72,5.0,Calm,Calm,-,N/A,,Overcast,0,2012-12-17 10:15:00
4:35 AM,24.8,19.4,80,29.72,7.0,SE,3.5,-,N/A,,Overcast,130,2012-12-17 10:35:00
4:55 AM,24.8,21.2,86,29.72,5.0,ESE,5.8,-,N/A,,Overcast,110,2012-12-17 10:55:00
5:15 AM,24.8,21.2,86,29.72,7.0,ESE,6.9,-,N/A,,Overcast,120,2012-12-17 11:15:00
5:35 AM,24.8,21.2,86,29.72,7.0,ESE,3.5,-,N/A,,Overcast,110,2012-12-17 11:35:00
5:55 AM,24.8,19.4,80,29.71,10.0,ESE,5.8,-,N/A,,Overcast,120,2012-12-17 11:55:00
6:15 AM,24.8,21.2,86,29.71,2.5,East,8.1,-,N/A,Snow,Light Snow,100,2012-12-17 12:15:00
6:35 AM,24.8,21.2,86,29.70,3.0,East,8.1,-,N/A,Snow,Light Snow,90,2012-12-17 12:35:00
6:55 AM,24.8,21.2,86,29.70,7.0,East,8.1,-,N/A,Snow,Light Snow,90,2012-12-17 12:55:00
7:15 AM,24.8,21.2,86,29.70,10.0,East,5.8,-,N/A,,Overcast,90,2012-12-17 13:15:00
7:35 AM,24.8,21.2,86,29.70,10.0,East,6.9,-,N/A,,Overcast,100,2012-12-17 13:35:00
7:55 AM,24.8,21.2,86,29.69,10.0,ESE,6.9,-,N/A,,Overcast,110,2012-12-17 13:55:00
8:15 AM,24.8,21.2,86,29.70,10.0,ESE,6.9,-,N/A,,Overcast,120,2012-12-17 14:15:00
8:35 AM,24.8,21.2,86,29.71,10.0,SE,3.5,-,N/A,,Overcast,140,2012-12-17 14:35:00
8:55 AM,24.8,21.2,86,29.71,10.0,SE,3.5,-,N/A,,Overcast,140,2012-12-17 14:55:00
9:15 AM,24.8,21.2,86,29.71,10.0,SSE,4.6,-,N/A,,Overcast,150,2012-12-17 15:15:00
9:35 AM,24.8,21.2,86,29.71,10.0,SE,3.5,-,N/A,,Overcast,140,2012-12-17 15:35:00
9:55 AM,26.6,21.2,80,29.70,10.0,Calm,Calm,-,N/A,,Overcast,0,2012-12-17 15:55:00
10:15 AM,26.6,23.0,86,29.71,10.0,Calm,Calm,-,N/A,,Overcast,0,2012-12-17 16:15:00
10:35 AM,26.6,21.2,80,29.71,10.0,Calm,Calm,-,N/A,,Overcast,0,2012-12-17 16:35:00
10:55 AM,26.6,21.2,80,29.70,10.0,Calm,Calm,-,N/A,,Overcast,0,2012-12-17 16:55:00
11:15 AM,26.6,21.2,80,29.70,10.0,SSE,3.5,-,N/A,,Overcast,160,2012-12-17 17:15:00
11:35 AM,26.6,23.0,86,29.69,10.0,Calm,Calm,-,N/A,,Overcast,0,2012-12-17 17:35:00
11:55 AM,26.6,23.0,86,29.68,10.0,Calm,Calm,-,N/A,,Overcast,0,2012-12-17 17:55:00
12:15 PM,28.4,23.0,80,29.67,10.0,Calm,Calm,-,N/A,,Overcast,0,2012-12-17 18:15:00
12:35 PM,26.6,23.0,86,29.67,10.0,Calm,Calm,-,N/A,,Overcast,0,2012-12-17 18:35:00
12:55 PM,28.4,23.0,80,29.66,10.0,Calm,Calm,-,N/A,,Overcast,0,2012-12-17 18:55:00
1:15 PM,28.4,23.0,80,29.65,10.0,SSE,3.5,-,N/A,,Overcast,160,2012-12-17 19:15:00
1:35 PM,28.4,23.0,80,29.64,10.0,Calm,Calm,-,N/A,,Overcast,0,2012-12-17 19:35:00
1:55 PM,28.4,23.0,80,29.64,10.0,Calm,Calm,-,N/A,,Overcast,0,2012-12-17 19:55:00
2:15 PM,28.4,24.8,86,29.63,7.0,Calm,Calm,-,N/A,,Overcast,0,2012-12-17 20:15:00
2:35 PM,28.4,24.8,86,29.63,7.0,SSW,3.5,-,N/A,,Overcast,210,2012-12-17 20:35:00
2:55 PM,28.4,24.8,86,29.63,4.0,South,3.5,-,N/A,,Overcast,190,2012-12-17 20:55:00
3:15 PM,28.4,24.8,86,29.64,2.0,SSW,3.5,-,N/A,,Overcast,200,2012-12-17 21:15:00
3:35 PM,28.4,26.6,93,29.64,1.5,SW,3.5,-,N/A,,Overcast,230,2012-12-17 21:35:00
3:55 PM,28.4,26.6,93,29.64,1.8,Calm,Calm,-,N/A,,Overcast,0,2012-12-17 21:55:00
6:35 PM,28.4,26.6,93,29.63,3.0,Calm,Calm,-,N/A,,Overcast,0,2012-12-18 00:35:00
6:55 PM,28.4,26.6,93,29.63,5.0,Calm,Calm,-,N/A,,Overcast,0,2012-12-18 00:55:00
7:15 PM,28.4,26.6,93,29.63,5.0,South,4.6,-,N/A,,Overcast,180,2012-12-18 01:15:00
7:35 PM,28.4,26.6,93,29.63,5.0,South,5.8,-,N/A,,Overcast,170,2012-12-18 01:35:00
7:55 PM,28.4,26.6,93,29.63,7.0,South,5.8,-,N/A,,Overcast,180,2012-12-18 01:55:00
8:15 PM,28.4,26.6,93,29.63,5.0,South,5.8,-,N/A,,Overcast,170,2012-12-18 02:15:00
8:35 PM,28.4,26.6,93,29.63,5.0,South,6.9,-,N/A,,Overcast,170,2012-12-18 02:35:00
8:55 PM,28.4,26.6,93,29.63,5.0,South,5.8,-,N/A,,Overcast,180,2012-12-18 02:55:00
9:15 PM,28.4,26.6,93,29.63,5.0,South,8.1,-,N/A,,Overcast,180,2012-12-18 03:15:00
9:35 PM,28.4,26.6,93,29.62,5.0,South,8.1,-,N/A,,Overcast,180,2012-12-18 03:35:00
9:55 PM,28.4,26.6,93,29.62,4.0,South,5.8,-,N/A,,Overcast,180,2012-12-18 03:55:00
10:15 PM,28.4,26.6,93,29.61,4.0,SSE,6.9,-,N/A,,Overcast,160,2012-12-18 04:15:00
10:35 PM,28.4,26.6,93,29.60,4.0,SE,6.9,-,N/A,,Overcast,140,2012-12-18 04:35:00
10:55 PM,28.4,26.6,93,29.60,3.0,SSE,3.5,-,N/A,,Overcast,160,2012-12-18 04:55:00
11:15 PM,28.4,26.6,93,29.60,4.0,South,9.2,-,N/A,,Overcast,170,2012-12-18 05:15:00
11:35 PM,28.4,26.6,93,29.59,3.0,SE,6.9,-,N/A,,Overcast,130,2012-12-18 05:35:00
11:55 PM,28.4,26.6,93,29.58,3.0,SSE,8.1,-,N/A,,Overcast,150,2012-12-18 05:55:00